GLO1344 SBSP-SBCX

Flight info

Callsign GLO1344
Flight time N/A
Altitude 38000
Route UBSOD UZ38 VUKMO
Aircraft B738/M-SDE2E3FGHIRWXY/LB1

Departure

Time N/A
Airport Congonhas–Deputado Freitas Nobre Airport (SBSP)

Arrival

Time 2026-05-06 13:37
Airport Hugo Cantergiani Regional Airport (SBCX)
Time Latitude Longitude Altitude Speed Heading
2026-05-06 13:18 -28.39158 -50.11166 28354 ft 322 kts 216°
2026-05-06 13:18 -28.41044 -50.12524 28002 ft 320 kts 215°
2026-05-06 13:19 -28.42917 -50.13876 27626 ft 319 kts 215°
2026-05-06 13:19 -28.44786 -50.15224 27256 ft 318 kts 216°
2026-05-06 13:19 -28.46651 -50.16577 26885 ft 318 kts 216°
2026-05-06 13:19 -28.48515 -50.17933 26517 ft 318 kts 216°
2026-05-06 13:20 -28.50391 -50.19293 26147 ft 322 kts 216°
2026-05-06 13:20 -28.52310 -50.20684 25748 ft 332 kts 216°
2026-05-06 13:20 -28.54275 -50.22109 25344 ft 336 kts 216°
2026-05-06 13:20 -28.56253 -50.23541 24946 ft 336 kts 216°
2026-05-06 13:21 -28.58227 -50.24972 24546 ft 336 kts 216°
2026-05-06 13:21 -28.60173 -50.26383 24166 ft 336 kts 216°
2026-05-06 13:21 -28.62172 -50.27834 23746 ft 337 kts 216°
2026-05-06 13:21 -28.64118 -50.29247 23321 ft 336 kts 216°
2026-05-06 13:22 -28.66088 -50.30677 22915 ft 334 kts 216°
2026-05-06 13:22 -28.68047 -50.32103 22528 ft 333 kts 216°
2026-05-06 13:22 -28.70002 -50.33525 22149 ft 332 kts 216°
2026-05-06 13:22 -28.71947 -50.34939 21772 ft 331 kts 216°
2026-05-06 13:23 -28.73851 -50.36394 21414 ft 326 kts 220°
2026-05-06 13:23 -28.75632 -50.37940 20989 ft 319 kts 221°
2026-05-06 13:23 -28.77350 -50.39492 20402 ft 319 kts 221°
2026-05-06 13:23 -28.79087 -50.41066 19959 ft 318 kts 222°
2026-05-06 13:24 -28.80825 -50.42633 19576 ft 319 kts 222°
2026-05-06 13:24 -28.82566 -50.44193 19236 ft 318 kts 222°
2026-05-06 13:24 -28.84303 -50.45742 18930 ft 316 kts 221°
2026-05-06 13:24 -28.86040 -50.47286 18583 ft 316 kts 221°
2026-05-06 13:25 -28.87772 -50.48823 18213 ft 315 kts 221°
2026-05-06 13:25 -28.89500 -50.50357 17850 ft 314 kts 221°
2026-05-06 13:25 -28.91221 -50.51882 17497 ft 312 kts 221°
2026-05-06 13:25 -28.92933 -50.53397 17166 ft 311 kts 221°
2026-05-06 13:26 -28.94643 -50.54912 16826 ft 310 kts 221°
2026-05-06 13:26 -28.96339 -50.56419 16497 ft 309 kts 221°
2026-05-06 13:26 -28.98009 -50.57904 16180 ft 307 kts 221°
2026-05-06 13:26 -28.99692 -50.59400 15861 ft 307 kts 221°
2026-05-06 13:27 -29.01384 -50.60904 15519 ft 306 kts 221°
2026-05-06 13:27 -29.03064 -50.62396 15169 ft 306 kts 220°
2026-05-06 13:27 -29.04839 -50.63821 14595 ft 316 kts 216°
2026-05-06 13:27 -29.06709 -50.65206 14027 ft 324 kts 216°
2026-05-06 13:28 -29.08606 -50.66615 13352 ft 325 kts 216°
2026-05-06 13:28 -29.10461 -50.68065 12737 ft 321 kts 223°
2026-05-06 13:28 -29.11803 -50.70038 12155 ft 312 kts 248°
2026-05-06 13:28 -29.12424 -50.72358 11718 ft 302 kts 265°
2026-05-06 13:29 -29.12471 -50.74695 11319 ft 295 kts 272°
2026-05-06 13:29 -29.12403 -50.77020 10894 ft 290 kts 273°
2026-05-06 13:29 -29.12323 -50.79307 10473 ft 286 kts 273°
2026-05-06 13:29 -29.12251 -50.81568 9952 ft 286 kts 273°
2026-05-06 13:30 -29.12189 -50.83804 9814 ft 271 kts 272°
2026-05-06 13:30 -29.12136 -50.85897 9696 ft 257 kts 272°
2026-05-06 13:30 -29.12085 -50.87916 9436 ft 250 kts 273°
2026-05-06 13:30 -29.12037 -50.89868 9251 ft 240 kts 273°
2026-05-06 13:31 -29.12032 -50.91745 8868 ft 237 kts 264°
2026-05-06 13:31 -29.12623 -50.93480 8397 ft 239 kts 243°
2026-05-06 13:31 -29.13601 -50.95027 7908 ft 239 kts 237°
2026-05-06 13:31 -29.14634 -50.96514 7438 ft 238 kts 236°
2026-05-06 13:32 -29.15660 -50.98004 6949 ft 238 kts 237°
2026-05-06 13:32 -29.16674 -50.99490 6502 ft 237 kts 237°
2026-05-06 13:32 -29.17682 -51.00986 6010 ft 237 kts 238°
2026-05-06 13:32 -29.18695 -51.02487 5543 ft 239 kts 238°
2026-05-06 13:33 -29.19683 -51.03944 5283 ft 225 kts 238°
2026-05-06 13:33 -29.20627 -51.05330 4986 ft 215 kts 238°
2026-05-06 13:33 -29.21505 -51.06642 4753 ft 200 kts 238°
2026-05-06 13:33 -29.22327 -51.07866 4442 ft 185 kts 239°
2026-05-06 13:34 -29.23099 -51.09033 4589 ft 186 kts 240°
2026-05-06 13:34 -29.23752 -51.10297 4493 ft 177 kts 251°
2026-05-06 13:34 -29.24021 -51.11579 4247 ft 158 kts 272°
2026-05-06 13:34 -29.23951 -51.12764 4024 ft 145 kts 286°
2026-05-06 13:35 -29.23672 -51.13865 3702 ft 144 kts 299°
2026-05-06 13:35 -29.23181 -51.14853 3378 ft 143 kts 308°
2026-05-06 13:35 -29.22511 -51.15688 3006 ft 141 kts 321°
2026-05-06 13:35 -29.22032 -51.16183 2956 ft 139 kts 321°
2026-05-06 13:36 -29.21289 -51.16993 2769 ft 149 kts 317°
2026-05-06 13:36 -29.20557 -51.17843 2534 ft 151 kts 320°
2026-05-06 13:36 -29.19847 -51.18611 2468 ft 124 kts 316°
2026-05-06 13:36 -29.19458 -51.19046 2469 ft 54 kts 316°
2026-05-06 13:37 -29.19207 -51.19322 2466 ft 36 kts 314°
2026-05-06 13:37 -29.19140 -51.19416 2468 ft 13 kts 285°
2026-05-06 13:37 -29.19119 -51.19445 2469 ft 3 kts 35°
2026-05-06 13:37 -29.19125 -51.19421 2469 ft 4 kts 122°
2026-05-06 13:38 -29.19153 -51.19385 2467 ft 8 kts 135°
2026-05-06 13:38 -29.19209 -51.19322 2466 ft 14 kts 135°
2026-05-06 13:38 -29.19284 -51.19238 2468 ft 17 kts 136°
2026-05-06 13:38 -29.19377 -51.19136 2466 ft 21 kts 136°
2026-05-06 13:39 -29.19484 -51.19017 2466 ft 15 kts 136°
2026-05-06 13:39 -29.19561 -51.18933 2465 ft 16 kts 136°
2026-05-06 13:39 -29.19615 -51.18846 2469 ft 13 kts 81°
2026-05-06 13:39 -29.19589 -51.18806 2465 ft 5 kts 47°
2026-05-06 13:40 -29.19538 -51.18779 2464 ft 8 kts 19°
2026-05-06 13:40 -29.19521 -51.18765 2466 ft 1 kts 41°
2026-05-06 13:40 -29.19514 -51.18758 2465 ft 1 kts 44°
2026-05-06 13:40 -29.19512 -51.18755 2467 ft 0 kts 44°